Regional Weather Roundup
Issued by NWS

Home | Current Version | Previous Version | Text Only | Print | Product List | Glossary On
Versions: 1 2 3 4 5 6 7 8 9 10 11 12 13 14 15 16 17 18 19 20 21 22 23 24 25 26 27 28 29 30 31 32 33 34 35 36 37 38 39 40 41 42 43 44 45 46 47 48 49 50
000
ASUS43 KFSD 272310
RWRSD

WEATHER ROUNDUP FOR SOUTH DAKOTA
NATIONAL WEATHER SERVICE SIOUX FALLS SD
600 PM CDT SAT MAY 27 2017

NOTE: "FAIR" INDICATES FEW OR NO CLOUDS BELOW 12,000 FEET WITH NO
SIGNIFICANT WEATHER AND/OR OBSTRUCTIONS TO VISIBILITY.


SDZ001>005-009-010-012>017-280000-
NORTHWEST AND NORTH CENTRAL SOUTH DAKOTA

CITY           SKY/WX    TMP DP  RH WIND       PRES   REMARKS
BUFFALO          N/A     66  43  43 W23       29.90R
FAITH            N/A     65  43  44 NW25G37   29.91S
MOBRIDGE       CLOUDY    73  38  27 W10       29.81F
$$

SDZ012>016-024>037-041>051-057-063-072>074-280000-
SOUTHWEST AND SOUTH CENTRAL SOUTH DAKOTA

CITY           SKY/WX    TMP DP  RH WIND       PRES   REMARKS
RAPID CTY ARPT SUNNY     71  34  25 NW20      29.99S
PIERRE         PTSUNNY   73  37  27 NW23G29   29.87S
CUSTER         CLOUDY    61  29  29 NW12G20   30.09S
ELLSWORTH AFB  PTSUNNY   71  35  26 W16       29.98S
PHILIP         MOSUNNY   75  36  24 NW14G26   29.93R
PINE RIDGE     SUNNY     67  41  38 W12       30.03F
SPEARFISH      FAIR      66  36  32 W20G26    30.03S
WINNER         FAIR      72  48  42 W13       29.93F
$$

SDZ004>011-016>023-039-040-280000-
NORTHEAST SOUTH DAKOTA

CITY           SKY/WX    TMP DP  RH WIND       PRES   REMARKS
ABERDEEN       MOSUNNY   75  32  20 W16G23    29.80F
WATERTOWN      MOSUNNY   68  41  37 SW14      29.86F
BROOKINGS      MOSUNNY   67  47  48 W10       29.89F
SISSETON         N/A     71  42  35 W25G36    29.80F
$$

SDZ017-020-022-023-036>040-048>070-280000-
SOUTHEAST SOUTH DAKOTA

CITY           SKY/WX    TMP DP  RH WIND       PRES   REMARKS
SIOUX FALLS    CLOUDY    67  50  54 SW3       29.90F
HURON          MOSUNNY   70  45  40 S10       29.86F
CHAMBERLAIN    SUNNY     74  49  41 S10       29.91S
MITCHELL       MOSUNNY   70  48  45 W10       29.91S
YANKTON        CLOUDY    65  53  65 W13       29.94S
$$

ABBREVIATIONS USED IN REMARKS
   TC - TEMPERATURE IN CELSIUS
  WCI - WIND CHILL INDEX
   HX - HEAT INDEX
  VSB - VISIBILITY




USA.gov is the U.S. government's official web portal to all federal, state and local government web resources and services.